Retour au catalogue

COSMOS 1867 COOLANT

ActifLEO
NORAD 39654·DEBRIS·🇷🇺 Russia

Lancé Jul 10, 1987 depuis Baikonur Cosmodrome

Loading…

Prochains Passages (prochaines 24 heures)

TLE

FraisSource: Space-Track

Époque: Sep 14, 2026, 21:25 UTC

1 39654U 87060R   26257.89239947  .00000142  00000-0  87008-4 0  9995
2 39654  65.0053 121.4941 0019476 280.4036  79.4854 14.33708440649369

Suivez COSMOS 1867 COOLANT en temps réel avec AllMySat

Download on the App Store